FLOCK 4A-15 (44100 NORAD) Tracking and Keplerian Element Data

This shows tracking and keplerian element data for the satellite.

Feedback or suggestion? Click here.




ElementValue
Catalog44100
NameFLOCK 4A-15
Epoch Orbit11119
Epoch Day90.90641071
Epoch Year2021
RAAN153.7867
Inclination97.3704
Eccentricity0.0009758
Argument of Perigee247.4152
Mean Anonmoly112.6053
Mean Motion15.24401282
Decay Rate4.006E-05
L11 44100U 19018Y 21090.90641071 .00004006 00000-0 16615-3 0 9990
L22 44100 97.3704 153.7867 0009758 247.4152 112.6053 15.24401282111192



Live tracking and technical data element details for FLOCK 4A-15 (NORAD 44100). FLOCK 4A-15 can be tracked NOW for your location showing map with azimuth and elevation plus other details from your city location.







IsCatalogInMostPopularTable: catalog: 44100, numindb: 338
Update: records affected: 1



GetName: 44100 FLOCK 4A-15

Hit Count: updated at: Thu, 15 May 2025 18:24:07 GMT